Weather History for KBIL - March, 2014

Change the Weather History Date:

Sunday, March 16, 2014

  Actual Average Record
Temperature  
Mean Temperature 46 °F 38 °F  
Max Temperature 54 °F 49 °F 78 °F (1994)
Min Temperature 38 °F 27 °F -13 °F (1943)
Degree Days  
Heating Degree Days 19 27  
Month to date heating degree days 511 468  
Since 1 July heating degree days 5784 5433  
Cooling Degree Days 0 0  
Month to date cooling degree days 0 0  
Year to date cooling degree days 0 0  
Moisture  
Dew Point 24 °F    
Average Humidity 45    
Maximum Humidity 54    
Minimum Humidity 35    
Precipitation  
Precipitation 0.00 in 0.04 in 0.22 in (1949)
Month to date precipitation 0.40 0.46  
Year to date precipitation 3.48 1.42  
Snow  
Snow 0.00 in 0.40 in 4.90 in (1941)
Month to date snowfall 5.0 5.2  
Since 1 July snowfall 95.2 39.7  
Snow Depth 0.00 in    
Sea Level Pressure  
Sea Level Pressure 29.98 in    
Wind  
Wind Speed 19 mph (WSW)    
Max Wind Speed 28 mph    
Max Gust Speed 35 mph    
Visibility 10 miles    
Events      
T = Trace of Precipitation, MM = Missing Value Source: NWS Daily Summary

Daily Weather History Graph

Daily Weather History Graph

Search for Another Location

Airport or City:

Trip Planner

Search our weather history database for the weather conditions in past years. The results will help you decide how hot, cold, wet, or windy it might be!

Date:

Astronomy

Mar. 16, 2014 Rise Set
Actual Time 7:24 AM MDT 7:21 PM MDT
Civil Twilight 6:55 AM MDT 7:51 PM MDT
Nautical Twilight 6:20 AM MDT 8:25 PM MDT
Astronomical Twilight 5:45 AM MDT 9:01 PM MDT
Moon 7:44 PM MDT (3/16) 7:08 AM MDT (3/16)
Length of Visible Light 12h 56m
Length of Day
11h 56m
Full, 100% of the Moon is Illuminated
Mar 16
Full
Mar 23
Last Quarter
Mar 30
New
Apr 7
First Quarter
Apr 15
Full

Hourly Weather History & Observations

Time (MDT) Temp. Windchill Dew Point Humidity Pressure Visibility Wind Dir Wind Speed Gust Speed Precip Events Conditions
12:53 AM 39.9 °F 32.1 °F 24.1 °F 53% 30.20 in 10.0 mi SW 13.8 mph - N/A   Overcast
1:53 AM 39.0 °F 30.3 °F 23.0 °F 53% 30.18 in 10.0 mi SW 16.1 mph - N/A   Scattered Clouds
2:53 AM 39.0 °F 29.0 °F 23.0 °F 53% 30.15 in 10.0 mi WSW 20.7 mph - N/A   Partly Cloudy
3:53 AM 39.9 °F 31.1 °F 21.9 °F 49% 30.13 in 10.0 mi WSW 17.3 mph - N/A   Scattered Clouds
4:53 AM 41.0 °F 31.9 °F 21.0 °F 45% 30.11 in 10.0 mi WSW 19.6 mph - N/A   Mostly Cloudy
5:53 AM 39.9 °F 30.8 °F 21.9 °F 49% 30.10 in 10.0 mi WSW 18.4 mph - N/A   Scattered Clouds
6:53 AM 39.9 °F 30.0 °F 21.9 °F 49% 30.10 in 10.0 mi WSW 21.9 mph - N/A   Scattered Clouds
7:53 AM 41.0 °F 31.6 °F 21.9 °F 47% 30.09 in 10.0 mi WSW 20.7 mph - N/A   Mostly Cloudy
8:53 AM 43.0 °F 34.8 °F 24.1 °F 47% 30.07 in 10.0 mi SW 18.4 mph - N/A   Mostly Cloudy
9:53 AM 45.0 °F 37.4 °F 24.1 °F 44% 30.06 in 10.0 mi WSW 18.4 mph 28.8 mph N/A   Mostly Cloudy
10:53 AM 46.0 °F 38.3 °F 24.1 °F 42% 30.06 in 10.0 mi WSW 20.7 mph 29.9 mph N/A   Mostly Cloudy
11:53 AM 48.9 °F - 25.0 °F 39% 30.02 in 10.0 mi WSW 20.7 mph 32.2 mph N/A   Mostly Cloudy
12:53 PM 50.0 °F - 25.0 °F 38% 29.99 in 10.0 mi WSW 25.3 mph 32.2 mph N/A   Mostly Cloudy
1:53 PM 50.0 °F - 25.0 °F 38% 29.98 in 10.0 mi WSW 16.1 mph - N/A   Mostly Cloudy
2:53 PM 51.1 °F - 25.0 °F 36% 29.94 in 10.0 mi WSW 18.4 mph 26.5 mph N/A   Mostly Cloudy
3:53 PM 52.0 °F - 26.1 °F 37% 29.92 in 10.0 mi WSW 20.7 mph - N/A   Mostly Cloudy
4:53 PM 54.0 °F - 26.1 °F 34% 29.89 in 10.0 mi WSW 16.1 mph - N/A   Mostly Cloudy
5:53 PM 54.0 °F - 26.1 °F 34% 29.86 in 10.0 mi WSW 16.1 mph - N/A   Mostly Cloudy
6:53 PM 52.0 °F - 25.0 °F 35% 29.83 in 10.0 mi WSW 21.9 mph 27.6 mph N/A   Mostly Cloudy
7:53 PM 50.0 °F - 25.0 °F 38% 29.81 in 10.0 mi WSW 15.0 mph - N/A   Mostly Cloudy
8:53 PM 48.9 °F - 25.0 °F 39% 29.78 in 10.0 mi WSW 18.4 mph 26.5 mph N/A   Mostly Cloudy
10:53 PM 48.9 °F - 24.1 °F 38% 29.73 in 10.0 mi WSW 19.6 mph 29.9 mph N/A   Overcast
11:53 PM 48.0 °F - 25.0 °F 41% 29.69 in 10.0 mi WSW 17.3 mph - N/A   Overcast